SCP
0 0 0 -0 -0 -0 0 0 0 0 0 0 -0 -0 0 0 0 0 0 0 0 0 0 0 0 0 0 0 0 0 0 0 0 0 0 0 0 0 0 0 0 0 0
0 0 0 0 0 -0 -0 -0 0 0 0 -0 -0 0 -0 0 0 0 0 0 0 0 0 0 0 0 0 0 0 0 0 0 0 0 0 0 0 0 0 0 0 0 0
0 -0 0 -0 0 0 -0 -0 -0 0 0 0 0 0 0 0 0 0 0 0 0 0 0 0 0 0 0 0 0 0 0 0 0 0 0 0 0 0 0 0 0 0 0
0 0 0 0 0 0 0 0 0 -0 -0 -0 -0 -0 0 0 0 0 0 0 0 0 0 0 0 0 0 0 0 0 0 0 0 0 0 0 0 0 0 0 0 0 0
0 0 -0 0 0 -0 -0 0 0 0 0 -0 0 0 0 0 0 0 0 0 0 0 0 0 0 0 0 0 0 0 0 0 0 0 0 0 0 0 0 0 0 0 0
0 0 0 0 0 -0 0 0 0 0 0 -0 -0 0 0 0 0 0 0 0 0 0 0 0 0 0 0 0 0 0 0 0 0 0 0 0 0 0 0 0 0 0 0
0 0 0 0 0 -0 0 0 0 0 0 0 0 0 0 0 0 0 0 0 0 0 0 0 0 0 0 0 0 0 0 0 0 0 0 0 0 0 0 0 0 0 0
0 0 0 -0 0 0 0 0 0 -0 0 0 0 0 0 0 0 0 0 0 0 0 0 0 0 0 0 0 0 0 0 0 0 0 0 0 0 0 0 0 0 0 0
0 0 0 0 0 0 0 0 0 0 0 0 0 0 0 0 0 0 1 0 0 0 0 0 0 0 0 0 0 0 0 0 0 0 0 0 0 0 0 0 0 0 0
0 0 1 0 1 0 0 1 0 0 1 0 0 0 0 0 0 0 1 0 0 0 1 0 0 1 1 0 0 1 0 0 0 0 0 0 0 0 0 0 0 0 0
1 0 0 1 1 1 1 1 1 1 0 1 0 1 1 1 1 1 0 0 1 0 1 1 0 1 2 1 1 1 1 0 0 0 0 0 0 0 0 0 0 0 0
1 1 1 1 1 1 1 1 1 1 1 1 1 2 1 2 1 1 1 0 0 0 0 1 1 1 1 1 1 1 1 1 0 0 0 0 0 0 0 0 0 0 0
1 1 1 2 2 2 1 1 1 1 1 1 1 1 1 1 1 0 0 0 0 0 0 0 0 1 1 1 1 1 1 1 0 0 0 0 0 0 0 0 0 0 0
2 2 2 2 1 2 1 1 2 1 1 1 0 1 0 0 0 0 0 0 0 0 0 0 0 0 1 0 1 0 0 0 0 0 0 0 0 0 0 0 0 0 0
2 2 2 2 1 1 1 1 1 1 1 0 0 1 0 0 0 1 0 0 0 0 0 0 0 0 0 0 0 0 0 1 0 0 0 0 0 0 0 0 0 0 0
1 2 1 1 1 1 0 1 0 0 0 0 0 0 0 0 0 0 0 0 0 0 0 0 0 0 0 0 0 0 0 0 0 0 0 0 0 0 0 0 0 0 0
1 1 1 1 1 0 0 0 0 0 0 0 0 0 0 0 0 0 0 0 0 0 0 0 0 0 0 0 0 0 0 0 0 0 0 0 0 0 0 0 0 0 0
1 1 1 0 0 0 0 0 0 0 0 0 0 0 0 0 0 0 0 0 0 0 0 0 0 0 0 0 0 0 0 0 0 0 0 0 0 0 0 0 0 0 0
0 0 0 0 0 0 0 0 0 0 0 0 0 0 0 0 0 0 0 0 0 0 0 0 0 0 0 0 0 0 0 0 0 0 0 0 0 0 0 0 0 0 0
0 0 0 0 0 0 0 0 0 0 0 0 0 0 0 0 0 0 0 0 0 0 0 0 0 0 0 0 0 0 0 0 0 0 0 0 0 0 0 0 0 0 0
0 0 0 0 0 0 0 0 0 0 0 0 0 0 0 0 0 0 0 0 0 0 0 0 0 0 0 0 0 0 0 0 0 0 0 0 0 0 0 0 0 0 0
0 0 0 0 0 0 0 0 0 0 0 0 0 0 0 0 0 0 0 0 0 0 0 0 0 0 0 0 0 0 0 0 0 0 0 0 0 0 0 0 0 0 0
0 0 0 0 0 0 0 0 0 0 0 0 0 0 0 0 0 0 0 0 0 0 0 0 0 0 0 0 0 0 0 0 0 0 0 0 0 0 0 0 0 0 0
0 0 0 0 0 0 0 0 0 0 0 0 0 0 0 0 0 0 0 0 0 0 0 0 0 0 0 0 0 0 0 0 0 0 0 0 0 0 0 0 0 0 0
0 0 0 0 0 0 0 0 0 0 0 0 0 0 0 0 0 0 0 0 0 0 0 0 0 0 0 0 0 0 0 0 0 0 0 0 0 0 0 0 0 0 0
0 0 0 0 0 0 0 0 0 0 0 0 0 0 0 0 0 0 0 0 0 0 0 0 0 0 0 0 0 0 0 0 0 0 0 0 0 0 0 0 0 0 0
Wind_Speed_500mb
11 7 4 5 5 4 5 3 3 4 4 3 3 5 4 5 7 8 10 18 11 4 3 8 13 16 16 17 19 20 20 23 25 26 27 29 28 26 26 25 23 23 23
9 8 16 5 4 5 1 1 2 3 4 7 5 5 5 3 1 4 3 11 14 10 3 6 13 16 18 22 25 24 25 26 28 30 30 38 30 28 27 27 24 18 16
10 14 11 3 7 5 8 6 6 7 6 9 10 9 9 11 6 5 2 9 19 13 11 5 2 10 18 22 22 24 28 27 27 21 18 23 26 24 25 24 26 23 20
13 14 12 6 9 6 8 9 8 8 9 10 11 12 10 12 11 11 8 8 5 15 15 12 10 5 8 14 18 15 18 19 20 20 21 21 22 22 22 22 22 22 22
14 17 11 11 12 12 12 13 12 12 11 11 12 12 14 15 16 13 14 15 12 15 10 25 19 12 10 10 13 14 16 19 20 21 21 21 22 22 20 20 22 22 23
15 18 14 16 13 14 14 14 16 14 14 14 14 10 14 16 16 17 25 22 19 19 18 20 28 21 12 15 16 17 17 18 21 21 23 24 24 22 23 24 24 24 23
20 20 16 19 16 16 18 14 17 17 14 15 15 16 18 21 18 19 25 21 23 23 25 25 28 23 35 30 27 24 23 22 23 24 26 27 26 26 25 26 27 26 24
25 21 22 19 21 22 24 19 20 17 19 18 16 18 17 9 19 19 15 18 21 23 26 28 30 33 29 40 39 30 29 27 28 28 30 30 31 30 29 29 29 29 29
29 26 24 25 24 29 22 28 19 18 19 24 22 18 18 18 12 21 30 19 21 23 25 29 32 36 40 39 39 48 46 41 35 34 34 35 36 36 35 34 34 33 32
33 34 35 32 33 23 25 25 21 17 24 22 23 21 26 25 24 20 13 25 32 27 27 27 34 39 42 43 43 46 48 46 44 44 41 39 42 43 43 42 41 39 37
35 42 37 35 35 32 33 34 29 32 27 32 29 29 28 30 28 28 32 27 17 22 32 32 42 41 38 50 48 51 55 66 63 54 51 50 46 50 51 49 48 46 44
36 36 36 38 38 38 34 33 34 33 40 36 33 32 29 28 28 27 27 32 35 36 35 29 30 42 51 47 44 52 58 60 60 62 63 61 61 57 57 57 54 53 52
25 28 33 37 37 34 34 34 35 38 32 32 29 24 20 25 25 30 33 35 38 39 39 38 41 39 34 36 41 50 55 65 56 62 66 66 71 70 65 61 59 58 57
25 30 27 28 28 26 27 27 32 28 24 16 16 21 22 23 28 30 32 32 37 36 34 33 31 40 39 48 56 57 55 59 67 59 64 71 76 77 80 76 69 63 64
27 24 19 22 18 20 22 27 24 13 15 15 17 31 24 26 31 35 33 28 30 30 32 33 36 36 33 29 33 31 44 46 54 51 54 66 71 82 85 92 85 77 76
24 23 18 19 19 21 16 9 4 14 13 17 19 23 21 22 24 26 28 31 32 36 42 33 32 29 32 34 38 43 43 46 51 57 56 57 56 60 69 84 95 95 85
24 17 17 15 11 10 8 6 7 13 14 16 17 17 18 19 21 23 27 28 31 31 38 36 31 35 37 43 45 37 45 41 48 57 52 52 52 62 57 69 80 76 94
13 12 11 13 9 4 3 5 8 11 11 15 17 20 24 25 28 32 32 35 33 36 44 46 47 47 46 47 50 50 40 41 44 50 52 44 49 50 52 61 64 60 65
18 18 17 9 5 5 6 7 8 9 14 19 24 27 31 33 34 35 36 33 35 43 42 46 46 47 48 51 44 49 48 41 42 43 47 49 40 46 54 56 60 63 71
21 16 13 3 4 8 10 12 13 18 22 27 31 33 34 37 39 42 34 39 42 46 45 46 49 50 49 50 42 40 42 43 46 41 43 45 49 47 46 50 48 53 61
14 9 8 5 9 11 17 16 19 23 26 32 35 39 38 40 41 47 50 33 45 39 40 43 47 48 50 45 44 44 49 48 43 44 42 37 33 32 34 39 47 54 58
3 4 4 11 15 18 26 28 33 34 33 32 43 45 46 46 43 34 35 38 38 34 35 35 39 44 54 54 51 50 50 48 48 30 31 27 28 36 36 37 37 43 42
7 9 9 16 22 27 33 33 34 33 34 33 42 37 37 27 25 21 25 33 31 33 40 39 38 39 47 50 55 61 53 46 44 40 43 39 34 37 36 31 36 37 45
11 13 17 24 29 32 33 37 34 32 31 44 30 32 34 31 34 35 36 30 29 31 32 36 37 46 44 44 50 59 66 53 51 45 44 56 36 35 38 33 44 35 41
13 18 23 24 25 28 29 31 36 33 36 37 35 38 34 28 38 34 35 32 34 32 32 38 44 43 36 35 39 46 41 52 55 53 45 49 38 36 37 24 40 36 37
13 11 15 22 23 24 27 28 34 30 32 30 25 27 20 18 32 33 36 39 37 38 39 47 42 44 42 36 27 31 37 37 42 44 42 50 36 34 24 35 32 28 23
Wind_Direction_500mb
247 222 288 300 289 301 340 41 52 148 168 136 147 142 102 71 64 93 308 14 28 27 230 227 231 212 214 230 240 239 245 253 256 245 231 227 227 232 238 240 242 238 233
256 255 245 5 280 305 293 313 269 292 275 233 215 238 204 172 137 96 337 328 24 40 24 222 219 222 226 236 241 249 255 263 267 264 237 230 237 239 235 232 229 218 202
256 283 292 235 260 261 264 289 317 296 266 265 272 240 250 240 222 231 128 317 328 344 24 42 280 234 227 242 255 257 256 258 261 247 234 227 234 237 231 231 228 228 218
246 260 275 332 232 273 278 272 295 278 284 279 262 258 263 258 262 264 252 223 249 290 324 346 353 324 264 244 253 253 243 240 238 238 239 234 231 227 221 218 220 219 207
253 260 255 257 273 258 276 270 272 272 276 274 260 251 251 254 265 275 250 256 249 239 263 290 300 312 293 267 257 257 249 242 235 230 225 226 227 223 219 219 217 216 209
237 245 239 239 266 265 270 271 267 268 263 270 265 270 253 256 260 262 258 260 253 256 253 264 279 282 272 294 273 262 255 243 237 232 228 226 220 224 228 224 221 222 206
226 236 223 244 262 263 262 280 275 279 268 270 281 270 261 249 243 264 254 252 252 254 255 256 253 257 275 283 284 270 258 255 245 238 232 231 229 226 224 222 218 212 206
222 223 230 233 248 250 251 255 258 255 266 253 257 280 274 280 252 273 244 250 256 256 257 256 250 253 246 272 281 274 262 255 255 247 240 235 234 232 227 219 214 209 204
218 226 224 236 226 248 256 268 252 243 262 264 259 262 289 269 266 284 252 244 244 248 260 259 252 252 251 244 256 271 267 258 250 251 248 241 236 232 228 219 213 210 208
217 216 227 231 242 231 237 254 261 253 266 264 256 262 261 274 281 284 278 261 272 257 254 248 261 256 253 250 251 245 268 265 256 249 249 247 240 235 228 224 221 217 214
227 225 233 237 242 245 238 249 252 261 257 263 263 260 259 272 269 272 285 291 271 267 289 268 261 266 263 254 248 252 251 250 253 253 250 249 245 239 234 230 226 222 219
231 235 229 239 239 241 248 249 257 264 272 254 252 257 257 267 274 273 277 282 284 283 285 284 264 278 265 270 260 254 254 254 255 258 254 249 245 242 238 234 230 226 223
234 242 235 235 236 244 251 255 259 282 268 263 268 271 280 284 285 278 280 281 282 285 283 279 279 286 275 271 261 265 274 272 258 256 260 257 249 244 241 236 234 229 225
237 241 230 240 242 237 244 257 278 272 272 260 268 265 274 281 282 288 291 283 283 282 281 283 284 271 274 283 280 283 275 279 273 264 258 257 256 249 240 239 232 231 234
248 228 222 234 226 241 248 267 267 258 262 280 287 295 285 293 287 281 286 286 285 284 282 282 280 289 286 281 274 278 274 282 285 274 267 259 257 250 245 242 237 226 232
227 228 230 228 242 246 254 244 264 299 288 285 278 275 283 286 279 283 283 283 282 287 293 292 292 296 296 296 290 294 288 283 282 287 278 269 258 249 249 249 245 241 231
244 223 228 221 207 212 213 265 276 282 290 284 292 295 294 298 298 291 291 286 286 286 291 292 299 293 298 297 291 289 291 283 277 285 291 278 267 259 254 250 247 257 237
207 217 176 158 140 127 253 287 281 276 295 296 294 296 298 296 294 287 288 291 291 291 290 290 289 293 294 298 289 285 282 286 285 281 291 293 279 267 260 254 253 251 245
150 142 151 157 175 224 281 282 278 287 293 295 294 292 294 296 290 287 285 286 282 292 292 288 287 291 293 293 281 286 284 279 284 285 280 280 280 274 262 261 258 249 250
145 157 141 121 319 313 284 270 282 294 296 296 293 291 288 288 282 278 281 289 288 289 287 288 288 288 289 287 286 287 291 286 286 285 276 285 286 280 271 265 260 252 255
145 148 88 318 301 293 281 242 282 286 290 296 298 297 292 286 286 283 287 283 284 289 284 286 286 289 290 291 286 290 287 287 287 276 280 274 276 285 282 278 263 257 258
121 7 315 276 280 282 277 272 280 281 292 301 299 296 290 288 279 283 286 293 296 305 294 290 289 288 287 288 285 284 282 278 277 273 289 276 279 285 280 279 279 265 258
260 284 262 273 278 278 275 277 281 282 299 295 292 292 288 282 308 278 293 307 313 301 306 303 297 293 292 289 281 279 277 272 268 269 278 286 282 275 278 277 280 269 258
258 268 277 272 278 279 279 282 281 291 305 300 280 293 286 294 287 283 298 306 302 301 302 301 296 306 302 289 276 279 273 278 267 266 269 271 267 272 269 270 277 277 265
250 287 291 288 289 288 284 281 291 299 299 300 292 297 290 276 287 283 302 306 302 303 309 315 312 316 327 305 291 287 286 270 274 275 269 268 269 267 275 266 273 279 262
298 278 306 305 305 299 295 303 309 306 303 305 304 310 320 279 280 296 304 309 301 304 304 307 304 297 307 322 324 299 287 272 271 273 269 258 258 266 266 269 281 272 273
Wind_Speed_850mb
11 7 4 5 5 4 5 3 3 4 4 3 3 5 4 5 7 8 10 18 11 4 3 8 13 16 16 17 19 20 20 23 25 26 27 29 28 26 26 25 23 23 23
9 8 16 5 4 5 1 1 2 3 4 7 5 5 5 3 1 4 3 11 14 10 3 6 13 16 18 22 25 24 25 26 28 30 30 38 30 28 27 27 24 18 16
10 14 11 3 7 5 8 6 6 7 6 9 10 9 9 11 6 5 2 9 19 13 11 5 2 10 18 22 22 24 28 27 27 21 18 23 26 24 25 24 26 23 20
13 14 12 6 9 6 8 9 8 8 9 10 11 12 10 12 11 11 8 8 5 15 15 12 10 5 8 14 18 15 18 19 20 20 21 21 22 22 22 22 22 22 22
14 17 11 11 12 12 12 13 12 12 11 11 12 12 14 15 16 13 14 15 12 15 10 25 19 12 10 10 13 14 16 19 20 21 21 21 22 22 20 20 22 22 23
15 18 14 16 13 14 14 14 16 14 14 14 14 10 14 16 16 17 25 22 19 19 18 20 28 21 12 15 16 17 17 18 21 21 23 24 24 22 23 24 24 24 23
20 20 16 19 16 16 18 14 17 17 14 15 15 16 18 21 18 19 25 21 23 23 25 25 28 23 35 30 27 24 23 22 23 24 26 27 26 26 25 26 27 26 24
25 21 22 19 21 22 24 19 20 17 19 18 16 18 17 9 19 19 15 18 21 23 26 28 30 33 29 40 39 30 29 27 28 28 30 30 31 30 29 29 29 29 29
29 26 24 25 24 29 22 28 19 18 19 24 22 18 18 18 12 21 30 19 21 23 25 29 32 36 40 39 39 48 46 41 35 34 34 35 36 36 35 34 34 33 32
33 34 35 32 33 23 25 25 21 17 24 22 23 21 26 25 24 20 13 25 32 27 27 27 34 39 42 43 43 46 48 46 44 44 41 39 42 43 43 42 41 39 37
35 42 37 35 35 32 33 34 29 32 27 32 29 29 28 30 28 28 32 27 17 22 32 32 42 41 38 50 48 51 55 66 63 54 51 50 46 50 51 49 48 46 44
36 36 36 38 38 38 34 33 34 33 40 36 33 32 29 28 28 27 27 32 35 36 35 29 30 42 51 47 44 52 58 60 60 62 63 61 61 57 57 57 54 53 52
25 28 33 37 37 34 34 34 35 38 32 32 29 24 20 25 25 30 33 35 38 39 39 38 41 39 34 36 41 50 55 65 56 62 66 66 71 70 65 61 59 58 57
25 30 27 28 28 26 27 27 32 28 24 16 16 21 22 23 28 30 32 32 37 36 34 33 31 40 39 48 56 57 55 59 67 59 64 71 76 77 80 76 69 63 64
27 24 19 22 18 20 22 27 24 13 15 15 17 31 24 26 31 35 33 28 30 30 32 33 36 36 33 29 33 31 44 46 54 51 54 66 71 82 85 92 85 77 76
24 23 18 19 19 21 16 9 4 14 13 17 19 23 21 22 24 26 28 31 32 36 42 33 32 29 32 34 38 43 43 46 51 57 56 57 56 60 69 84 95 95 85
24 17 17 15 11 10 8 6 7 13 14 16 17 17 18 19 21 23 27 28 31 31 38 36 31 35 37 43 45 37 45 41 48 57 52 52 52 62 57 69 80 76 94
13 12 11 13 9 4 3 5 8 11 11 15 17 20 24 25 28 32 32 35 33 36 44 46 47 47 46 47 50 50 40 41 44 50 52 44 49 50 52 61 64 60 65
18 18 17 9 5 5 6 7 8 9 14 19 24 27 31 33 34 35 36 33 35 43 42 46 46 47 48 51 44 49 48 41 42 43 47 49 40 46 54 56 60 63 71
21 16 13 3 4 8 10 12 13 18 22 27 31 33 34 37 39 42 34 39 42 46 45 46 49 50 49 50 42 40 42 43 46 41 43 45 49 47 46 50 48 53 61
14 9 8 5 9 11 17 16 19 23 26 32 35 39 38 40 41 47 50 33 45 39 40 43 47 48 50 45 44 44 49 48 43 44 42 37 33 32 34 39 47 54 58
3 4 4 11 15 18 26 28 33 34 33 32 43 45 46 46 43 34 35 38 38 34 35 35 39 44 54 54 51 50 50 48 48 30 31 27 28 36 36 37 37 43 42
7 9 9 16 22 27 33 33 34 33 34 33 42 37 37 27 25 21 25 33 31 33 40 39 38 39 47 50 55 61 53 46 44 40 43 39 34 37 36 31 36 37 45
11 13 17 24 29 32 33 37 34 32 31 44 30 32 34 31 34 35 36 30 29 31 32 36 37 46 44 44 50 59 66 53 51 45 44 56 36 35 38 33 44 35 41
13 18 23 24 25 28 29 31 36 33 36 37 35 38 34 28 38 34 35 32 34 32 32 38 44 43 36 35 39 46 41 52 55 53 45 49 38 36 37 24 40 36 37
13 11 15 22 23 24 27 28 34 30 32 30 25 27 20 18 32 33 36 39 37 38 39 47 42 44 42 36 27 31 37 37 42 44 42 50 36 34 24 35 32 28 23
Wind_Direction_850mb
247 222 288 300 289 301 340 41 52 148 168 136 147 142 102 71 64 93 308 14 28 27 230 227 231 212 214 230 240 239 245 253 256 245 231 227 227 232 238 240 242 238 233
256 255 245 5 280 305 293 313 269 292 275 233 215 238 204 172 137 96 337 328 24 40 24 222 219 222 226 236 241 249 255 263 267 264 237 230 237 239 235 232 229 218 202
256 283 292 235 260 261 264 289 317 296 266 265 272 240 250 240 222 231 128 317 328 344 24 42 280 234 227 242 255 257 256 258 261 247 234 227 234 237 231 231 228 228 218
246 260 275 332 232 273 278 272 295 278 284 279 262 258 263 258 262 264 252 223 249 290 324 346 353 324 264 244 253 253 243 240 238 238 239 234 231 227 221 218 220 219 207
253 260 255 257 273 258 276 270 272 272 276 274 260 251 251 254 265 275 250 256 249 239 263 290 300 312 293 267 257 257 249 242 235 230 225 226 227 223 219 219 217 216 209
237 245 239 239 266 265 270 271 267 268 263 270 265 270 253 256 260 262 258 260 253 256 253 264 279 282 272 294 273 262 255 243 237 232 228 226 220 224 228 224 221 222 206
226 236 223 244 262 263 262 280 275 279 268 270 281 270 261 249 243 264 254 252 252 254 255 256 253 257 275 283 284 270 258 255 245 238 232 231 229 226 224 222 218 212 206
222 223 230 233 248 250 251 255 258 255 266 253 257 280 274 280 252 273 244 250 256 256 257 256 250 253 246 272 281 274 262 255 255 247 240 235 234 232 227 219 214 209 204
218 226 224 236 226 248 256 268 252 243 262 264 259 262 289 269 266 284 252 244 244 248 260 259 252 252 251 244 256 271 267 258 250 251 248 241 236 232 228 219 213 210 208
217 216 227 231 242 231 237 254 261 253 266 264 256 262 261 274 281 284 278 261 272 257 254 248 261 256 253 250 251 245 268 265 256 249 249 247 240 235 228 224 221 217 214
227 225 233 237 242 245 238 249 252 261 257 263 263 260 259 272 269 272 285 291 271 267 289 268 261 266 263 254 248 252 251 250 253 253 250 249 245 239 234 230 226 222 219
231 235 229 239 239 241 248 249 257 264 272 254 252 257 257 267 274 273 277 282 284 283 285 284 264 278 265 270 260 254 254 254 255 258 254 249 245 242 238 234 230 226 223
234 242 235 235 236 244 251 255 259 282 268 263 268 271 280 284 285 278 280 281 282 285 283 279 279 286 275 271 261 265 274 272 258 256 260 257 249 244 241 236 234 229 225
237 241 230 240 242 237 244 257 278 272 272 260 268 265 274 281 282 288 291 283 283 282 281 283 284 271 274 283 280 283 275 279 273 264 258 257 256 249 240 239 232 231 234
248 228 222 234 226 241 248 267 267 258 262 280 287 295 285 293 287 281 286 286 285 284 282 282 280 289 286 281 274 278 274 282 285 274 267 259 257 250 245 242 237 226 232
227 228 230 228 242 246 254 244 264 299 288 285 278 275 283 286 279 283 283 283 282 287 293 292 292 296 296 296 290 294 288 283 282 287 278 269 258 249 249 249 245 241 231
244 223 228 221 207 212 213 265 276 282 290 284 292 295 294 298 298 291 291 286 286 286 291 292 299 293 298 297 291 289 291 283 277 285 291 278 267 259 254 250 247 257 237
207 217 176 158 140 127 253 287 281 276 295 296 294 296 298 296 294 287 288 291 291 291 290 290 289 293 294 298 289 285 282 286 285 281 291 293 279 267 260 254 253 251 245
150 142 151 157 175 224 281 282 278 287 293 295 294 292 294 296 290 287 285 286 282 292 292 288 287 291 293 293 281 286 284 279 284 285 280 280 280 274 262 261 258 249 250
145 157 141 121 319 313 284 270 282 294 296 296 293 291 288 288 282 278 281 289 288 289 287 288 288 288 289 287 286 287 291 286 286 285 276 285 286 280 271 265 260 252 255
145 148 88 318 301 293 281 242 282 286 290 296 298 297 292 286 286 283 287 283 284 289 284 286 286 289 290 291 286 290 287 287 287 276 280 274 276 285 282 278 263 257 258
121 7 315 276 280 282 277 272 280 281 292 301 299 296 290 288 279 283 286 293 296 305 294 290 289 288 287 288 285 284 282 278 277 273 289 276 279 285 280 279 279 265 258
260 284 262 273 278 278 275 277 281 282 299 295 292 292 288 282 308 278 293 307 313 301 306 303 297 293 292 289 281 279 277 272 268 269 278 286 282 275 278 277 280 269 258
258 268 277 272 278 279 279 282 281 291 305 300 280 293 286 294 287 283 298 306 302 301 302 301 296 306 302 289 276 279 273 278 267 266 269 271 267 272 269 270 277 277 265
250 287 291 288 289 288 284 281 291 299 299 300 292 297 290 276 287 283 302 306 302 303 309 315 312 316 327 305 291 287 286 270 274 275 269 268 269 267 275 266 273 279 262
298 278 306 305 305 299 295 303 309 306 303 305 304 310 320 279 280 296 304 309 301 304 304 307 304 297 307 322 324 299 287 272 271 273 269 258 258 266 266 269 281 272 273